DMSP 5D-3 F17 DEB

Satellite information

Favourite Embed

Satellite Type and Status

DEBRISIN ORBIT

Key statistics

Satellite DMSP 5D-3 F17 DEB at a glance.

Uptime

6931

Days in orbit

Revolutions

≈ 14.3

Per day

Orbit

SSO

Sun Synchronous Orbit

Inclination

98.6

Latest

Satellite identification and parameters

Extended collection of information and parameters for DMSP 5D-3 F17 DEB.

Object identification

Identified? True

Debris? True

Object name: DMSP 5D-3 F17 DEB

International designator: 2006-050D

Object number (NORAD): 29525

Object ID (CCSDS): 29525

Country: UNITED STATES OF AMERICA (US)

Current information (Y/N): Y

RCS size: SMALL

Orbital parameters

Period: 100.691 minutes

Inclination: 98.5532 deg

SMA: 7169.459 km

Apoapsis: 795.494 km

Periapsis: 787.153 km

RAAN: 317.4379 deg

Eccentricy: 0.0005817

Argument of periapsis: 102.7395 deg

Mean anomaly: 18.3018 deg

Mean motion: 14.30122436 rev/day

Mean motion (dot): 0.00002889 rev/day2

B* drag term: 0.0011334242 1/REarth

Two-line elements (TLE)

Creation date: Oct. 26, 2025, 2:54 a.m.

Reference frame: TEME

Reference center: EARTH

Epoch: Oct. 25, 2025, 9:16 p.m. UTC

TLE line 0: 0 DMSP 5D-3 F17 DEB

TLE line 1: 1 29525U 06050D 25298.88643834 .00002889 00000-0 11334-2 0 9995

TLE line 2: 2 29525 98.5532 317.4379 0005817 102.7395 18.3018 14.30122436982937

Live tracking on map

Real-time ground track for satellite DMSP 5D-3 F17 DEB.

In-orbit conjunctions

A list of the most updated potential collisions computed for object DMSP 5D-3 F17 DEB.

Target Orbit TCA Probability of collision Miss distance Type
SL-16 DEB LEO 2025-09-02 10:49:57 0.0001116259 101.0 (m) DEBRIS
COSMOS 1275 DEB LEO 2025-05-03 21:09:10 0.0007476462 91.0 (m) DEBRIS
FENGYUN 1C DEB SSO 2024-06-03 03:01:19 0.0001360901 248.0 (m) DEBRIS

Associated space launch

11th gen military meteorological satellite

DMSP 5D-3 F17 DEB was lifted into orbit during the mission ‘Delta IV M | DMSP F-17’, on board a Delta IV M space rocket.

The launch took place on Nov. 4, 2006, 1:53 p.m. from Space Launch Complex 6.

For more information about the launch, click the button.

Launch to space Delta IV M | DMSP F-17
Delta IV M | DMSP F-17

Agency: N/A

Status: Launch Successful

Launch date: Nov. 4, 2006, 1:53 p.m. UTC

Rocket: Delta IV M

Launch pad: Space Launch Complex 6

Location: Vandenberg SFB, CA, USA

...

Latest news about this satellite

There are no fresh news available about this satellite. Check back as we update our databases every day.


Newsletter sign-up

Weekly statistics, charts and insights to help you stay on top of the space industry.